FW1648 Weather Reports


Display with metric or nautical units.
time (UTC)temp
F
wind
direction
speed
MPH
gust
MPH
rain 1hr
in
rain 24hr
in
rain mn
in
humidity
%
barometer
mb
20260502220805 48 339 1.0 5.0 0.00 0.00 0.00 51 1016.2
20260502220305 48 262 1.0 6.0 0.00 0.00 0.00 50 1016.2
20260502215305 47 324 1.0 3.0 0.00 0.00 0.00 51 1016.2
20260502214805 47 189 2.0 3.0 0.00 0.00 0.00 51 1016.2
20260502214305 47 306 1.0 5.0 0.00 0.00 0.00 50 1016.3
20260502213305 47 235 2.0 3.0 0.00 0.00 0.00 49 1016.3
20260502212806 47 280 2.0 6.0 0.00 0.00 0.00 48 1016.3
20260502212305 47 296 1.0 3.0 0.00 0.00 0.00 50 1016.3
20260502211805 47 269 2.0 5.0 0.00 0.00 0.00 50 1016.3
20260502211306 47 259 1.0 3.0 0.00 0.00 0.00 50 1016.4
20260502210805 47 322 1.0 3.0 0.00 0.00 0.00 48 1016.4
20260502210305 47 311 2.0 5.0 0.00 0.00 0.00 47 1016.5
20260502205805 47 308 2.0 3.0 0.00 0.00 0.00 48 1016.4
20260502205307 47 301 3.0 6.0 0.00 0.00 0.00 47 1016.4
20260502204805 47 310 2.0 5.0 0.00 0.00 0.00 48 1016.4
20260502204306 48 295 1.0 5.0 0.00 0.00 0.00 47 1016.5
20260502203805 48 332 1.0 5.0 0.00 0.00 0.00 49 1016.4
20260502203305 48 328 1.0 5.0 0.00 0.00 0.00 50 1016.6
20260502202805 47 309 2.0 3.0 0.00 0.00 0.00 48 1016.5
20260502202305 47 307 2.0 5.0 0.00 0.00 0.00 50 1016.6
20260502201805 47 304 2.0 7.0 0.00 0.00 0.00 48 1016.7
20260502201305 47 314 2.0 3.0 0.00 0.00 0.00 48 1016.7
20260502200805 47 303 1.0 3.0 0.00 0.00 0.00 51 1016.7
20260502200305 47 308 2.0 6.0 0.00 0.00 0.00 50 1016.8
20260502195305 47 305 2.0 6.0 0.00 0.00 0.00 48 1016.9
20260502194805 47 282 4.0 7.0 0.00 0.00 0.00 46 1016.9
20260502194305 47 277 2.0 6.0 0.00 0.00 0.00 49 1017.0
20260502193805 47 287 3.0 5.0 0.00 0.00 0.00 48 1017.0
20260502193305 47 295 3.0 3.0 0.00 0.00 0.00 47 1017.0
20260502192805 47 279 5.0 8.0 0.00 0.00 0.00 46 1017.1
20260502192305 47 258 2.0 6.0 0.00 0.00 0.00 47 1017.1
20260502191805 47 275 2.0 6.0 0.00 0.00 0.00 48 1017.2
20260502191305 47 289 2.0 6.0 0.00 0.00 0.00 48 1017.2
20260502190805 48 250 3.0 7.0 0.00 0.00 0.00 46 1017.3
20260502190305 48 299 1.0 8.0 0.00 0.00 0.00 49 1017.3
20260502185805 47 317 2.0 3.0 0.00 0.00 0.00 51 1017.3
20260502185306 47 303 1.0 5.0 0.00 0.00 0.00 49 1017.4
20260502184805 47 255 2.0 5.0 0.00 0.00 0.00 48 1017.4
20260502183806 48 289 1.0 3.0 0.00 0.00 0.00 47 1017.5
20260502182805 47 321 1.0 3.0 0.00 0.00 0.00 51 1017.5
20260502181305 47 246 2.0 5.0 0.00 0.00 0.00 48 1017.5
20260502180805 47 243 1.0 5.0 0.00 0.00 0.00 48 1017.5
20260502180305 47 276 2.0 5.0 0.00 0.00 0.00 51 1017.6
20260502170305 47 308 3.0 7.0 0.00 0.00 0.00 50 1018.0
20260502164305 45 5 0.0 3.0 0.00 0.00 0.00 56 1018.1
20260502163805 45 293 2.0 3.0 0.00 0.00 0.00 51 1018.2
20260502163305 46 295 2.0 3.0 0.00 0.00 0.00 52 1018.2
20260502162806 46 297 2.0 3.0 0.00 0.00 0.00 52 1018.2
20260502162305 46 338 1.0 5.0 0.00 0.00 0.00 50 1018.2
20260502161805 46 288 3.0 6.0 0.00 0.00 0.00 52 1018.2
20260502161307 46 248 2.0 6.0 0.00 0.00 0.00 51 1018.2
20260502160805 46 285 2.0 6.0 0.00 0.00 0.00 49 1018.3
20260502160305 47 316 1.0 5.0 0.00 0.00 0.00 50 1018.3
20260502152305 47 14 2.0 7.0 0.00 0.00 0.00 56 1018.1
20260502151805 46 20 2.0 7.0 0.00 0.00 0.00 57 1018.0
20260502151305 46 26 5.0 13.0 0.00 0.00 0.00 55 1017.9
20260502150306 44 284 2.0 5.0 0.00 0.00 0.00 59 1018.1
20260502130305 42 24 1.0 2.0 0.00 0.00 0.00 69 1018.1
20260502123805 40 328 1.0 3.0 0.00 0.00 0.00 76 1018.1
20260502123305 39 21 1.0 3.0 0.00 0.00 0.00 76 1018.1
20260502122805 39 298 1.0 3.0 0.00 0.00 0.00 76 1018.1
20260502122306 39 331 1.0 3.0 0.00 0.00 0.00 79 1018.1
20260502121805 38 346 0.0 3.0 0.00 0.00 0.00 80 1018.1
20260502120805 37 197 1.0 3.0 0.00 0.00 0.00 83 1018.0
20260502120306 36 22 0.0 2.0 0.00 0.00 0.00 83 1018.0
20260502115805 35 330 1.0 2.0 0.00 0.00 0.00 84 1018.0
20260502115306 35 349 0.0 2.0 0.00 0.00 0.00 85 1018.0
20260502113805 34 292 0.0 2.0 0.00 0.00 0.00 87 1017.9
20260502113305 33 302 1.0 3.0 0.00 0.00 0.00 88 1017.8
20260502112805 33 217 1.0 2.0 0.00 0.00 0.00 89 1017.8
20260502112306 32 249 0.0 2.0 0.00 0.00 0.00 89 1017.7
20260502111305 31 58 0.0 1.0 0.00 0.00 0.00 88 1017.7
20260502110805 31 58 0.0 0.0 0.00 0.00 0.00 88 1017.6
20260502110306 31 58 0.0 0.0 0.00 0.00 0.00 88 1017.6
20260502105805 32 58 0.0 0.0 0.00 0.00 0.00 88 1017.5
20260502104805 32 58 0.0 0.0 0.00 0.00 0.00 88 1017.5
20260502104305 32 58 0.0 0.0 0.00 0.00 0.00 87 1017.5
20260502103805 32 58 0.0 0.0 0.00 0.00 0.00 87 1017.5
20260502101804 33 58 0.0 0.0 0.00 0.00 0.00 86 1017.4
20260502100805 33 58 0.0 0.0 0.00 0.00 0.00 86 1017.4
20260502100305 34 58 0.0 0.0 0.00 0.00 0.00 86 1017.4
20260502091305 36 58 0.0 0.0 0.00 0.00 0.00 88 1017.1
20260502090805 36 58 0.0 0.0 0.00 0.00 0.00 88 1017.1
20260502090305 37 58 0.0 0.0 0.00 0.00 0.00 87 1017.0
20260502071305 39 45 0.0 0.0 0.00 0.01 0.00 84 1016.7
20260502070805 39 45 0.0 1.0 0.00 0.01 0.00 84 1016.7
20260502070305 39 45 0.0 1.0 0.00 0.01 0.00 84 1016.7
20260502065805 39 45 0.0 1.0 0.00 0.01 0.00 83 1016.6
20260502064305 39 44 0.0 2.0 0.00 0.01 0.00 82 1016.8
20260502063305 39 5 0.0 0.0 0.00 0.01 0.00 82 1016.9
20260502062805 39 5 0.0 1.0 0.00 0.01 0.00 81 1016.9
20260502062306 39 75 1.0 2.0 0.00 0.01 0.00 81 1016.9
20260502061805 40 11 0.0 3.0 0.00 0.01 0.00 81 1016.9
20260502061305 40 69 1.0 3.0 0.00 0.01 0.00 80 1016.9
20260502060805 40 40 1.0 3.0 0.00 0.01 0.00 80 1016.9
20260502060305 40 43 1.0 3.0 0.00 0.01 0.00 80 1016.9
20260502055805 40 41 1.0 3.0 0.00 0.01 0.00 79 1017.0
20260502055306 40 36 1.0 3.0 0.00 0.01 0.00 79 1017.0
20260502054804 40 36 1.0 3.0 0.00 0.01 0.00 79 1017.0
20260502054305 40 355 1.0 3.0 0.00 0.01 0.00 79 1017.1
20260502053805 40 87 1.0 3.0 0.00 0.01 0.00 79 1017.1
20260502053305 40 26 2.0 6.0 0.00 0.01 0.00 79 1017.1
20260502051805 40 38 0.0 3.0 0.00 0.01 0.00 79 1017.0
20260502051305 40 65 1.0 3.0 0.00 0.01 0.00 79 1017.0
20260502050805 40 353 1.0 3.0 0.00 0.01 0.00 79 1016.9
20260502050305 40 330 1.0 2.0 0.00 0.01 0.00 80 1016.9
20260502045306 40 286 1.0 2.0 0.00 0.01 0.00 82 1016.8
20260502044305 39 322 1.0 3.0 0.00 0.01 0.00 84 1016.8
20260502043805 39 333 0.0 2.0 0.00 0.01 0.00 84 1016.7
20260502043305 39 49 0.0 0.0 0.00 0.01 0.00 85 1016.6
20260502042805 39 49 0.0 0.0 0.00 0.02 0.00 85 1016.6
20260502042306 39 49 0.0 0.0 0.00 0.02 0.00 85 1016.6
20260502040827 39 49 0.0 0.0 0.00 0.02 0.00 85 1016.4
20260502040306 39 49 0.0 0.0 0.00 0.02 0.00 85 1016.4
20260502035805 39 49 0.0 0.0 0.00 0.03 0.03 85 1016.4
20260502035306 39 49 0.0 1.0 0.00 0.03 0.03 85 1016.4
20260502034305 39 49 0.0 0.0 0.00 0.03 0.03 83 1016.4
20260502033305 39 49 0.0 0.0 0.00 0.03 0.03 83 1016.4
20260502032805 39 49 0.0 0.0 0.00 0.03 0.03 81 1016.3
20260502032306 39 49 0.0 0.0 0.00 0.03 0.03 80 1016.3
20260502031805 39 49 0.0 0.0 0.00 0.03 0.03 79 1016.3
20260502031305 40 49 0.0 0.0 0.00 0.03 0.03 79 1016.3
20260502030305 41 49 0.0 0.0 0.00 0.03 0.03 79 1016.3
20260502025805 41 49 0.0 0.0 0.00 0.03 0.03 78 1016.3
20260502025306 41 49 0.0 1.0 0.00 0.03 0.03 79 1016.3
20260502024805 41 49 0.0 0.0 0.00 0.03 0.03 78 1016.3
20260502024305 41 49 0.0 0.0 0.00 0.03 0.03 78 1016.3
20260502023805 42 49 0.0 0.0 0.00 0.03 0.03 78 1016.3
20260502022805 42 49 0.0 0.0 0.00 0.03 0.03 77 1016.2
20260502022306 42 49 0.0 1.0 0.00 0.03 0.03 77 1016.2
20260502021805 42 23 0.0 0.0 0.00 0.03 0.03 77 1016.2
20260502020805 42 23 0.0 0.0 0.00 0.03 0.03 77 1016.0
20260502020305 42 23 0.0 1.0 0.00 0.03 0.03 77 1016.0
20260502015804 42 23 1.0 2.0 0.00 0.03 0.03 75 1015.9
20260502015305 42 11 0.0 1.0 0.00 0.03 0.03 75 1015.8
20260502014304 42 28 0.0 1.0 0.00 0.03 0.03 76 1015.8
20260502013807 42 67 0.0 2.0 0.00 0.03 0.03 76 1015.8
20260502012805 42 335 0.0 1.0 0.00 0.03 0.03 77 1015.7
20260502012306 42 335 0.0 0.0 0.00 0.03 0.03 78 1015.7
20260502011805 42 335 0.0 0.0 0.00 0.03 0.03 77 1015.6
20260502010805 43 335 0.0 1.0 0.00 0.03 0.03 74 1015.5
20260502010304 43 335 0.0 1.0 0.00 0.03 0.03 74 1015.5
20260502005805 43 335 0.0 1.0 0.00 0.03 0.03 72 1015.5
20260502005306 43 335 0.0 0.0 0.00 0.03 0.03 72 1015.5
20260502004805 43 335 0.0 2.0 0.00 0.03 0.03 73 1015.4
20260502003805 43 311 1.0 3.0 0.00 0.03 0.03 71 1015.4
20260502003305 44 312 1.0 2.0 0.00 0.03 0.03 72 1015.5
20260502002805 44 343 1.0 2.0 0.00 0.03 0.03 72 1015.4
20260502002306 44 39 0.0 1.0 0.00 0.03 0.03 71 1015.3
20260502001805 44 39 1.0 2.0 0.00 0.03 0.03 71 1015.3
20260502001305 44 36 0.0 3.0 0.00 0.03 0.03 70 1015.3
20260502000805 44 19 1.0 3.0 0.00 0.03 0.03 70 1015.3
20260502000305 44 351 0.0 2.0 0.00 0.03 0.03 69 1015.2
20260501235806 44 337 0.0 2.0 0.00 0.03 0.03 69 1015.1
20260501234304 45 10 1.0 3.0 0.00 0.03 0.03 68 1015.0
20260501233305 45 314 1.0 2.0 0.00 0.03 0.03 68 1014.9
20260501232805 45 317 1.0 2.0 0.00 0.03 0.03 68 1014.8
20260501232306 45 312 1.0 2.0 0.00 0.03 0.03 68 1014.8
20260501231805 45 34 1.0 3.0 0.00 0.03 0.03 68 1014.7
20260501230805 46 312 0.0 0.0 0.00 0.03 0.03 69 1014.7
20260501225306 46 336 0.0 2.0 0.00 0.03 0.03 67 1014.8
20260501224804 46 326 0.0 2.0 0.00 0.03 0.03 66 1014.8
20260501224305 46 311 1.0 3.0 0.00 0.03 0.03 65 1014.7
20260501223805 46 320 1.0 2.0 0.00 0.03 0.03 65 1014.7
20260501223305 46 356 1.0 3.0 0.00 0.03 0.03 65 1014.7
20260501222306 47 314 0.0 3.0 0.00 0.03 0.03 64 1014.6
20260501221805 47 310 2.0 5.0 0.00 0.03 0.03 63 1014.5
20260501221305 47 357 2.0 6.0 0.00 0.03 0.03 64 1014.4